"Period start","avg(HW err(1)/warn(2) (#))","avg(Visibility (m))","avg(Weather code (#))","avg(Precip intensity (mm/h))","min(HW err(1)/warn(2) (#))","max(HW err(1)/warn(2) (#))","std(HW err(1)/warn(2) (#))","med(HW err(1)/warn(2) (#))","min(Visibility (m))","max(Visibility (m))","std(Visibility (m))","med(Visibility (m))","min(Weather code (#))","max(Weather code (#))","std(Weather code (#))","med(Weather code (#))","min(Precip intensity (mm/h))","max(Precip intensity (mm/h))","std(Precip intensity (mm/h))","med(Precip intensity (mm/h))"
2014-10-21 00:00:00,2,5155,71,0.10,2,2,0,2,3282,7191,1436,4594,71,71,0,71,0.00,0.30,0.08,0.10
2014-10-21 00:10:00,2,7900,71,0.12,2,2,0,2,6271,9856,1307,7689,71,71,0,71,0.00,0.40,0.12,0.08
2014-10-21 00:20:00,2,6803,71,0.34,2,2,0,2,5377,7688,694,6922,71,71,0,71,0.10,0.80,0.23,0.28
2014-10-21 00:30:00,2,3425,71,0.48,2,2,0,2,2175,5169,1101,2854,71,71,0,71,0.15,1.20,0.34,0.40
2014-10-21 00:40:00,2,1692,71,1.30,2,2,0,2,1440,2098,187,1680,71,71,0,71,0.35,2.65,0.58,1.23
2014-10-21 00:50:00,2,1409,71,1.61,2,2,0,2,1238,1619,99,1409,71,71,0,71,1.25,2.45,0.33,1.52
2014-10-21 01:00:00,2,1323,71,1.47,2,2,0,2,1178,1405,68,1328,71,71,0,71,0.85,2.55,0.52,1.35
2014-10-21 01:10:00,2,1662,71,0.89,2,2,0,2,1347,1830,138,1664,71,71,0,71,0.60,2.15,0.44,0.73
2014-10-21 01:20:00,2,2964,71,0.33,2,2,0,2,1776,4612,958,2830,71,71,0,71,0.05,0.70,0.21,0.30
2014-10-21 01:30:00,2,10450,74,0.01,2,2,0,2,6484,16022,3670,8766,71,77,3,74,0.00,0.05,0.02,0.00
2014-10-21 01:40:00,2,5115,76,0.34,2,2,0,2,1433,12759,3732,4615,71,77,2,77,0.00,1.10,0.40,0.05
2014-10-21 01:50:00,2,1355,73,1.22,2,2,0,2,819,2557,469,1314,71,77,3,71,0.40,2.45,0.72,0.85
2014-10-21 02:00:00,2,11615,73,0.04,2,2,0,2,5559,17798,3920,11509,71,77,3,71,0.00,0.35,0.10,0.00
2014-10-21 02:10:00,2,16050,9,0.00,2,2,0,2,12552,20872,2728,15432,0,77,23,0,0.00,0.00,0.00,0.00
2014-10-21 02:20:00,2,17741,0,0.00,2,2,0,2,13785,21970,2848,18629,0,0,0,0,0.00,0.00,0.00,0.00
2014-10-21 02:30:00,2,19349,0,0.00,2,2,0,2,13625,28628,3966,19056,0,0,0,0,0.00,0.00,0.00,0.00
2014-10-21 02:40:00,2,31672,0,0.00,2,2,0,2,27093,36970,3311,31572,0,0,0,0,0.00,0.00,0.00,0.00
2014-10-21 02:50:00,2,33142,0,0.00,2,2,0,2,24590,41414,5159,32704,0,0,0,0,0.00,0.00,0.00,0.00
2014-10-21 03:00:00,2,12466,0,0.00,2,2,0,2,5319,19784,4842,11228,0,0,0,0,0.00,0.00,0.00,0.00
2014-10-21 03:10:00,2,7790,34,0.06,2,2,0,2,5152,11034,1988,8317,0,77,31,25,0.00,0.25,0.10,0.00
2014-10-21 03:20:00,2,9124,74,0.15,2,2,0,2,5501,12155,2212,9630,71,77,3,74,0.00,0.40,0.12,0.15
2014-10-21 03:30:00,2,5704,71,0.80,2,2,0,2,3771,7770,1118,5675,71,71,0,71,0.20,1.80,0.51,0.70
2014-10-21 03:40:00,2,6162,71,1.18,2,2,0,2,3325,8427,1953,6841,71,71,0,71,0.15,3.25,1.02,0.65
2014-10-21 03:50:00,2,7350,71,0.40,2,2,0,2,4134,11177,2028,7393,71,71,0,71,0.05,1.70,0.48,0.20
2014-10-21 04:00:00,2,9525,71,0.23,2,2,0,2,7089,11716,1601,9584,71,71,0,71,0.05,0.95,0.26,0.12
2014-10-21 04:10:00,2,14567,64,0.02,2,2,0,2,10222,18685,2884,15942,0,71,21,71,0.00,0.10,0.04,0.00
2014-10-21 04:20:00,2,15824,0,0.00,2,2,0,2,12252,18428,2068,16260,0,0,0,0,0.00,0.00,0.00,0.00
2014-10-21 04:30:00,2,15928,0,0.00,2,2,0,2,14912,17207,784,15812,0,0,0,0,0.00,0.00,0.00,0.00
2014-10-21 04:40:00,2,15678,0,0.00,2,2,0,2,14327,16754,781,15614,0,0,0,0,0.00,0.00,0.00,0.00
2014-10-21 04:50:00,2,15142,0,0.00,2,2,0,2,14252,16306,596,15367,0,0,0,0,0.00,0.00,0.00,0.00
2014-10-21 05:00:00,2,15177,0,0.00,2,2,0,2,14173,15876,579,15331,0,0,0,0,0.00,0.00,0.00,0.00
2014-10-21 05:10:00,2,13877,0,0.00,2,2,0,2,13039,14759,618,13760,0,0,0,0,0.00,0.00,0.00,0.00
2014-10-21 05:20:00,2,9470,0,0.00,2,2,0,2,5515,13678,2384,8798,0,0,0,0,0.00,0.00,0.00,0.00
2014-10-21 05:30:00,2,7247,10,0.00,2,2,0,2,2466,10377,2131,7544,10,10,0,10,0.00,0.00,0.00,0.00
2014-10-21 05:40:00,2,4532,51,0.01,2,2,0,2,2816,7547,1485,4352,10,77,25,56,0.00,0.05,0.02,0.00
2014-10-21 05:50:00,2,4722,75,0.02,2,2,0,2,2056,8494,1598,4495,71,77,3,77,0.00,0.15,0.05,0.00
2014-10-21 06:00:00,2,3394,76,0.21,2,2,0,2,1114,5733,1341,3298,71,77,2,77,0.00,0.75,0.24,0.15
2014-10-21 06:10:00,2,2654,74,0.42,2,2,0,2,1081,4437,955,2677,71,77,3,74,0.10,1.40,0.39,0.28
2014-10-21 06:20:00,2,2050,71,0.55,2,2,0,2,1354,2830,476,2048,71,71,0,71,0.25,0.80,0.19,0.57
2014-10-21 06:30:00,2,2616,72,0.30,2,2,0,2,2083,2890,277,2699,71,77,2,71,0.05,0.95,0.33,0.12
2014-10-21 06:40:00,2,2720,77,0.15,2,2,0,2,2100,3569,471,2602,77,77,0,77,0.10,0.25,0.05,0.15
2014-10-21 06:50:00,2,4081,77,0.12,2,2,0,2,2828,5343,732,4026,77,77,0,77,0.05,0.25,0.07,0.10
2014-10-21 07:00:00,2,2984,73,0.35,2,2,0,2,1877,3537,469,3125,71,77,3,71,0.20,0.50,0.09,0.35
2014-10-21 07:10:00,2,4263,77,0.14,2,2,0,2,3045,5702,921,4189,77,77,0,77,0.00,0.30,0.10,0.12
2014-10-21 07:20:00,2,4378,74,0.20,2,2,0,2,2745,6218,1020,4586,71,77,3,74,0.10,0.35,0.09,0.20
2014-10-21 07:30:00,2,5324,71,0.17,2,2,0,2,3955,7196,914,5450,71,71,0,71,0.00,0.35,0.10,0.17
2014-10-21 07:40:00,2,6620,73,0.11,2,2,0,2,5521,8187,932,6637,71,77,3,71,0.00,0.30,0.08,0.12
2014-10-21 07:50:00,2,5632,76,0.07,2,2,0,2,4575,6566,694,5596,71,77,2,77,0.00,0.20,0.05,0.05
2014-10-21 08:00:00,2,6697,77,0.04,2,2,0,2,3607,9001,1506,6873,77,77,0,77,0.00,0.10,0.04,0.05
2014-10-21 08:10:00,2,10519,75,0.01,2,2,0,2,7369,13347,1893,10222,71,77,3,77,0.00,0.05,0.02,0.00
2014-10-21 08:20:00,2,12589,53,0.00,2,2,0,2,11114,13924,832,12768,0,77,35,74,0.00,0.00,0.00,0.00
2014-10-21 08:30:00,2,13178,0,0.00,2,2,0,2,11944,14521,760,13131,0,0,0,0,0.00,0.00,0.00,0.00
2014-10-21 08:40:00,2,13011,0,0.00,2,2,0,2,12020,13798,521,13010,0,0,0,0,0.00,0.00,0.00,0.00
2014-10-21 08:50:00,2,12315,0,0.00,2,2,0,2,9451,13687,1349,12916,0,0,0,0,0.00,0.00,0.00,0.00
2014-10-21 09:00:00,2,12557,0,0.00,2,2,0,2,10688,14142,884,12480,0,0,0,0,0.00,0.00,0.00,0.00
2014-10-21 09:10:00,2,12107,0,0.00,2,2,0,2,9990,12958,830,12353,0,0,0,0,0.00,0.00,0.00,0.00
2014-10-21 09:20:00,2,12826,0,0.00,2,2,0,2,11874,13795,567,12862,0,0,0,0,0.00,0.00,0.00,0.00
2014-10-21 09:30:00,2,12790,0,0.00,2,2,0,2,11952,13396,448,12868,0,0,0,0,0.00,0.00,0.00,0.00
2014-10-21 09:40:00,2,13262,0,0.00,2,2,0,2,12153,14284,643,13115,0,0,0,0,0.00,0.00,0.00,0.00
2014-10-21 09:50:00,2,13672,0,0.00,2,2,0,2,13126,14432,415,13588,0,0,0,0,0.00,0.00,0.00,0.00
2014-10-21 10:00:00,2,14164,0,0.00,2,2,0,2,13279,15841,693,14052,0,0,0,0,0.00,0.00,0.00,0.00
2014-10-21 10:10:00,2,13654,0,0.00,2,2,0,2,12579,14179,495,13794,0,0,0,0,0.00,0.00,0.00,0.00
2014-10-21 10:20:00,2,14282,0,0.00,2,2,0,2,13714,14928,358,14212,0,0,0,0,0.00,0.00,0.00,0.00
2014-10-21 10:30:00,2,14633,0,0.00,2,2,0,2,13251,15334,616,14852,0,0,0,0,0.00,0.00,0.00,0.00
2014-10-21 10:40:00,2,14124,0,0.00,2,2,0,2,13248,15068,631,14110,0,0,0,0,0.00,0.00,0.00,0.00
2014-10-21 10:50:00,2,14530,0,0.00,2,2,0,2,13563,16191,750,14538,0,0,0,0,0.00,0.00,0.00,0.00
2014-10-21 11:00:00,2,15340,0,0.00,2,2,0,2,14278,16512,653,15242,0,0,0,0,0.00,0.00,0.00,0.00
2014-10-21 11:10:00,2,6690,27,0.03,2,2,0,2,2140,15025,4683,4338,0,77,30,20,0.00,0.10,0.04,0.00
2014-10-21 11:20:00,2,3550,62,0.07,2,2,0,2,1461,6419,1317,3373,10,77,26,77,0.00,0.25,0.08,0.05
2014-10-21 11:30:00,2,8809,10,0.00,2,2,0,2,4248,14116,3249,8485,10,10,0,10,0.00,0.00,0.00,0.00
2014-10-21 11:40:00,2,7292,10,0.00,2,2,0,2,4338,12666,2451,6940,10,10,0,10,0.00,0.00,0.00,0.00
2014-10-21 11:50:00,2,14465,8,0.00,2,2,0,2,5063,18396,4229,16271,0,10,4,10,0.00,0.00,0.00,0.00
2014-10-21 12:00:00,2,16783,0,0.00,2,2,0,2,13247,21170,2333,17218,0,0,0,0,0.00,0.00,0.00,0.00
2014-10-21 12:10:00,2,16861,0,0.00,2,2,0,2,13137,20267,2349,17306,0,0,0,0,0.00,0.00,0.00,0.00
2014-10-21 12:20:00,2,16132,0,0.00,2,2,0,2,5739,20211,4591,18202,0,0,0,0,0.00,0.00,0.00,0.00
2014-10-21 12:30:00,2,15128,0,0.00,2,2,0,2,9013,19438,3129,15257,0,0,0,0,0.00,0.00,0.00,0.00
2014-10-21 12:40:00,2,16910,0,0.00,2,2,0,2,10612,19941,2850,17920,0,0,0,0,0.00,0.00,0.00,0.00
2014-10-21 12:50:00,2,13962,0,0.00,2,2,0,2,6782,20767,5509,15940,0,0,0,0,0.00,0.00,0.00,0.00
2014-10-21 13:00:00,2,12856,0,0.00,2,2,0,2,7070,19366,4498,10739,0,0,0,0,0.00,0.00,0.00,0.00
2014-10-21 13:10:00,2,19210,0,0.00,2,2,0,2,16187,22210,1769,18978,0,0,0,0,0.00,0.00,0.00,0.00
2014-10-21 13:20:00,2,19109,0,0.00,2,2,0,2,16670,21805,1483,19644,0,0,0,0,0.00,0.00,0.00,0.00
2014-10-21 13:30:00,2,18306,0,0.00,2,2,0,2,9027,21652,3792,20075,0,0,0,0,0.00,0.00,0.00,0.00
2014-10-21 13:40:00,2,21416,0,0.00,2,2,0,2,17243,24553,2221,21784,0,0,0,0,0.00,0.00,0.00,0.00
2014-10-21 13:50:00,2,17335,0,0.00,2,2,0,2,9201,24877,4604,17033,0,0,0,0,0.00,0.00,0.00,0.00
2014-10-21 14:00:00,2,15675,0,0.00,2,2,0,2,10988,21014,3065,15639,0,0,0,0,0.00,0.00,0.00,0.00
2014-10-21 14:10:00,2,15789,0,0.00,2,2,0,2,11243,21738,3164,15009,0,0,0,0,0.00,0.00,0.00,0.00
2014-10-21 14:20:00,2,20400,0,0.00,2,2,0,2,14296,24081,3059,21558,0,0,0,0,0.00,0.00,0.00,0.00
2014-10-21 14:30:00,2,22126,0,0.00,2,2,0,2,19942,25493,1645,22219,0,0,0,0,0.00,0.00,0.00,0.00
2014-10-21 14:40:00,2,20388,0,0.00,2,2,0,2,10648,26159,4500,21764,0,0,0,0,0.00,0.00,0.00,0.00
2014-10-21 14:50:00,2,21406,0,0.00,2,2,0,2,17318,26364,2479,21522,0,0,0,0,0.00,0.00,0.00,0.00
2014-10-21 15:00:00,2,17420,0,0.00,2,2,0,2,14198,22422,2885,15707,0,0,0,0,0.00,0.00,0.00,0.00
2014-10-21 15:10:00,2,24139,0,0.00,2,2,0,2,18608,29511,3263,24255,0,0,0,0,0.00,0.00,0.00,0.00
2014-10-21 15:20:00,2,19034,0,0.00,2,2,0,2,13379,22164,2544,19742,0,0,0,0,0.00,0.00,0.00,0.00
2014-10-21 15:30:00,2,21229,0,0.00,2,2,0,2,14101,28636,4280,22362,0,0,0,0,0.00,0.00,0.00,0.00
2014-10-21 15:40:00,2,25033,0,0.00,2,2,0,2,20140,31146,3634,23143,0,0,0,0,0.00,0.00,0.00,0.00
2014-10-21 15:50:00,2,22722,0,0.00,2,2,0,2,12112,31430,5181,21942,0,0,0,0,0.00,0.00,0.00,0.00
2014-10-21 16:00:00,2,16752,0,0.00,2,2,0,2,11615,21528,2979,16310,0,0,0,0,0.00,0.00,0.00,0.00
2014-10-21 16:10:00,2,10034,0,0.00,2,2,0,2,5824,17285,3712,9204,0,0,0,0,0.00,0.00,0.00,0.00
2014-10-21 16:20:00,2,14400,0,0.00,2,2,0,2,6305,25675,6864,14308,0,0,0,0,0.00,0.00,0.00,0.00
2014-10-21 16:30:00,2,12602,8,0.01,2,2,0,2,2421,27316,9555,11674,0,40,16,0,0.00,0.05,0.02,0.00
2014-10-21 16:40:00,2,4782,75,0.01,2,2,0,2,2663,7867,1655,4410,71,77,3,77,0.00,0.05,0.02,0.00
2014-10-21 16:50:00,2,5083,76,0.01,2,2,0,2,2250,8738,1912,5638,71,77,2,77,0.00,0.05,0.02,0.00
2014-10-21 17:00:00,2,6208,75,0.02,2,2,0,2,1837,8836,2607,7226,71,77,3,77,0.00,0.10,0.03,0.00
2014-10-21 17:10:00,2,7365,74,0.01,2,2,0,2,2732,15288,3624,7405,71,77,3,74,0.00,0.05,0.02,0.00
2014-10-21 17:20:00,2,11575,10,0.00,2,2,0,2,7481,19804,3565,10484,10,10,0,10,0.00,0.00,0.00,0.00
2014-10-21 17:30:00,2,12879,0,0.00,2,2,0,2,6154,22825,5344,11304,0,0,0,0,0.00,0.00,0.00,0.00
2014-10-21 17:40:00,2,3062,75,0.08,2,2,0,2,1537,6978,1604,2387,71,77,3,77,0.00,0.15,0.06,0.10
2014-10-21 17:50:00,2,4235,64,0.11,2,2,0,2,1434,13869,3914,2434,10,77,27,77,0.00,0.25,0.07,0.10
2014-10-21 18:00:00,2,8053,61,0.00,2,2,0,2,3486,15434,3580,8512,10,77,25,71,0.00,0.00,0.00,0.00
2014-10-21 18:10:00,2,15098,28,0.00,2,2,0,2,9345,27357,5032,12727,0,77,31,10,0.00,0.00,0.00,0.00
2014-10-21 18:20:00,2,11676,44,0.01,2,2,0,2,2731,33230,10792,5658,0,77,36,71,0.00,0.05,0.02,0.00
2014-10-21 18:30:00,2,19166,61,0.00,2,2,0,2,6959,30290,6919,18250,10,77,26,71,0.00,0.00,0.00,0.00
2014-10-21 18:40:00,2,7244,44,0.00,2,2,0,2,3178,14776,3411,7220,0,77,36,71,0.00,0.00,0.00,0.00
2014-10-21 18:50:00,2,9124,75,0.00,2,2,0,2,4261,18757,4553,7608,71,77,3,77,0.00,0.00,0.00,0.00
2014-10-21 19:00:00,2,6753,76,0.01,2,2,0,2,3088,11981,2490,6336,71,77,2,77,0.00,0.05,0.02,0.00
2014-10-21 19:10:00,2,8905,75,0.01,2,2,0,2,2841,17530,5310,8317,71,77,3,77,0.00,0.05,0.02,0.00
2014-10-21 19:20:00,2,7309,75,0.01,2,2,0,2,3643,13186,3043,8022,71,77,3,77,0.00,0.05,0.02,0.00
2014-10-21 19:30:00,2,6116,75,0.00,2,2,0,2,3938,8588,1504,6290,71,77,3,77,0.00,0.00,0.00,0.00
2014-10-21 19:40:00,2,13983,75,0.00,2,2,0,2,5013,20266,4705,12791,71,77,3,77,0.00,0.00,0.00,0.00
2014-10-21 19:50:00,2,9999,76,0.00,2,2,0,2,5108,17423,3685,9538,71,77,2,77,0.00,0.00,0.00,0.00
2014-10-21 20:00:00,2,9424,68,0.00,2,2,0,2,6381,11970,1637,9646,10,77,20,74,0.00,0.00,0.00,0.00
2014-10-21 20:10:00,2,12833,4,0.00,2,2,0,2,6372,22190,5318,11120,0,10,5,0,0.00,0.00,0.00,0.00
2014-10-21 20:20:00,2,12255,0,0.00,2,2,0,2,5091,19834,4854,10158,0,0,0,0,0.00,0.00,0.00,0.00
2014-10-21 20:30:00,2,20084,0,0.00,2,2,0,2,15143,23876,2770,20830,0,0,0,0,0.00,0.00,0.00,0.00
2014-10-21 20:40:00,2,9845,1,0.00,2,2,0,2,4150,16820,4370,9792,0,10,3,0,0.00,0.00,0.00,0.00
2014-10-21 20:50:00,2,12754,10,0.00,2,2,0,2,4057,22299,6509,13560,10,10,0,10,0.00,0.00,0.00,0.00
2014-10-21 21:00:00,2,14275,3,0.00,2,2,0,2,8653,21177,4682,14140,0,10,5,0,0.00,0.00,0.00,0.00
2014-10-21 21:10:00,2,10595,0,0.00,2,2,0,2,6419,21552,4696,9026,0,0,0,0,0.00,0.00,0.00,0.00
2014-10-21 21:20:00,2,8598,10,0.00,2,2,0,2,4728,16106,3125,7384,10,10,0,10,0.00,0.00,0.00,0.00
2014-10-21 21:30:00,2,14208,7,0.00,2,2,0,2,5715,20332,4012,14462,0,10,5,10,0.00,0.00,0.00,0.00
2014-10-21 21:40:00,2,13313,0,0.00,2,2,0,2,6835,18652,3464,13229,0,0,0,0,0.00,0.00,0.00,0.00
2014-10-21 21:50:00,2,13972,0,0.00,2,2,0,2,8110,18374,3340,14194,0,0,0,0,0.00,0.00,0.00,0.00
2014-10-21 22:00:00,2,17015,0,0.00,2,2,0,2,15370,18717,1086,16694,0,0,0,0,0.00,0.00,0.00,0.00
2014-10-21 22:10:00,2,16236,0,0.00,2,2,0,2,14459,17512,956,16027,0,0,0,0,0.00,0.00,0.00,0.00
2014-10-21 22:20:00,2,14986,0,0.00,2,2,0,2,14481,15584,386,14902,0,0,0,0,0.00,0.00,0.00,0.00
2014-10-21 22:30:00,2,16096,0,0.00,2,2,0,2,14615,17386,831,16010,0,0,0,0,0.00,0.00,0.00,0.00
2014-10-21 22:40:00,2,15402,0,0.00,2,2,0,2,13369,16692,1108,15599,0,0,0,0,0.00,0.00,0.00,0.00
2014-10-21 22:50:00,2,15496,0,0.00,2,2,0,2,14010,18393,1136,15242,0,0,0,0,0.00,0.00,0.00,0.00
2014-10-21 23:00:00,2,14930,0,0.00,2,2,0,2,12175,17484,1462,14978,0,0,0,0,0.00,0.00,0.00,0.00
2014-10-21 23:10:00,2,12378,0,0.00,2,2,0,2,9663,14761,1621,12530,0,0,0,0,0.00,0.00,0.00,0.00
2014-10-21 23:20:00,2,11230,0,0.00,2,2,0,2,8802,14409,1920,11136,0,0,0,0,0.00,0.00,0.00,0.00
2014-10-21 23:30:00,2,6149,36,0.26,2,2,0,2,3790,11901,2733,5013,0,71,32,40,0.00,1.05,0.34,0.05
2014-10-21 23:40:00,2,3598,71,1.39,2,2,0,2,2428,5700,1182,3007,71,71,0,71,0.20,2.85,0.87,1.55
2014-10-21 23:50:00,2,2225,71,2.32,2,2,0,2,1402,3498,729,2034,71,71,0,71,1.15,3.75,1.01,1.95
